timestamp,surface_pressure_avg,surface_temp_avg,battery_voltage,lat,long
2020-08-08 00:09:01+00:00,288.7897,17.68,12.97,47.84626,-54.09684
2020-08-08 00:19:01+00:00,292.0181,17.83,12.81,47.84626,-54.09684
2020-08-08 00:29:01+00:00,298.9347,17.5,12.81,47.84626,-54.09684
2020-08-08 00:39:01+00:00,309.748,17.74,12.81,47.84626,-54.09684
2020-08-08 00:49:01+00:00,318.0264,17.91,12.81,47.84626,-54.09684
2020-08-08 00:59:01+00:00,321.4464,17.9,12.81,47.84626,-54.09684
2020-08-08 01:09:01+00:00,329.0729,17.89,12.81,47.84626,-54.09684
2020-08-08 01:19:01+00:00,336.86300000000006,17.6,12.73,47.84626,-54.09684
2020-08-08 01:29:01+00:00,340.80800000000005,17.2,12.73,47.84626,-54.09684
2020-08-08 01:39:01+00:00,343.3146,17.36,12.73,47.84626,-54.09684
2020-08-08 01:49:01+00:00,347.6213,17.3,12.73,47.84626,-54.09684
2020-08-08 01:59:01+00:00,351.5179,17.2,12.73,47.84626,-54.09684
2020-08-08 02:09:01+00:00,352.9696,17.1,12.73,47.84626,-54.09684
2020-08-08 02:19:01+00:00,354.228,17.03,12.73,47.84626,-54.09684
2020-08-08 02:29:01+00:00,355.70300000000015,17.05,12.73,47.84626,-54.09684
2020-08-08 02:39:01+00:00,358.2096,17.0,12.73,47.84626,-54.09684
2020-08-08 02:49:01+00:00,356.3896,17.09,12.73,47.84626,-54.09684
2020-08-08 02:59:01+00:00,355.56800000000015,17.2,12.73,47.84626,-54.09684
2020-08-08 03:09:01+00:00,355.6512,17.09,12.73,47.84626,-54.09684
2020-08-08 03:19:01+00:00,353.4829,17.06,12.73,47.84626,-54.09684
2020-08-08 03:29:01+00:00,350.1346,17.19,12.73,47.84626,-54.09684
2020-08-08 03:39:01+00:00,346.8013,17.24,12.73,47.84626,-54.09684
2020-08-08 03:49:01+00:00,343.5413,17.25,12.73,47.84626,-54.09684
2020-08-08 03:59:01+00:00,338.1396,17.33,12.73,47.84626,-54.09684
2020-08-08 04:09:01+00:00,333.5780000000001,17.58,12.73,47.84626,-54.09684
2020-08-08 04:19:01+00:00,328.278,17.84,12.73,47.84626,-54.09684
2020-08-08 04:29:01+00:00,324.0264,17.96,12.73,47.84626,-54.09684
2020-08-08 04:39:01+00:00,321.2313,17.98,12.73,47.84626,-54.09684
2020-08-08 04:49:01+00:00,314.7314,17.99,12.73,47.84626,-54.09684
2020-08-08 04:59:01+00:00,308.77299999999997,18.0,12.73,47.84626,-54.09684
2020-08-08 05:09:01+00:00,301.6414,18.14,12.73,47.84626,-54.09684
2020-08-08 05:19:01+00:00,293.7297,18.3,12.73,47.84626,-54.09684
2020-08-08 05:29:01+00:00,285.5547,18.35,12.73,47.84626,-54.09684
2020-08-08 05:39:01+00:00,279.383,18.39,12.73,47.84626,-54.09684
2020-08-08 05:49:01+00:00,270.3348,18.4,12.73,47.84626,-54.09684
2020-08-08 05:59:01+00:00,257.7814,18.4,12.73,47.84626,-54.09684
2020-08-08 06:09:01+00:00,248.4481,18.39,12.73,47.84626,-54.09684
2020-08-08 06:19:01+00:00,242.9031,18.39,12.73,47.84626,-54.09684
2020-08-08 06:29:01+00:00,236.1881,18.36,12.73,47.84626,-54.09684
2020-08-08 06:39:01+00:00,227.623,18.38,12.73,47.84626,-54.09684
2020-08-08 06:49:01+00:00,220.7031,18.37,12.73,47.84626,-54.09684
2020-08-08 06:59:01+00:00,216.2181,18.3,12.73,47.84626,-54.09684
2020-08-08 07:09:01+00:00,211.6164,18.3,12.73,47.84626,-54.09684
2020-08-08 07:19:01+00:00,205.0064,18.3,12.73,47.84626,-54.09684
2020-08-08 07:29:01+00:00,200.1014,18.35,12.73,47.84626,-54.09684
2020-08-08 07:39:01+00:00,197.5432,18.38,12.73,47.84626,-54.09684
2020-08-08 07:49:01+00:00,194.7231,18.4,12.73,47.84626,-54.09684
2020-08-08 07:59:01+00:00,191.5815,18.39,12.73,47.84626,-54.09684
2020-08-08 08:09:01+00:00,189.7998,18.3,12.73,47.84626,-54.09684
2020-08-08 08:19:01+00:00,192.2331,18.19,12.65,47.84626,-54.09684
2020-08-08 08:29:01+00:00,194.3781,18.17,12.65,47.84626,-54.09684
2020-08-08 08:39:01+00:00,193.1448,18.1,12.65,47.84626,-54.09684
2020-08-08 08:49:01+00:00,195.7815,18.09,12.65,47.84626,-54.09684
2020-08-08 08:59:01+00:00,202.7031,18.06,12.65,47.84626,-54.09684
2020-08-08 09:09:01+00:00,205.5214,18.0,12.65,47.84626,-54.09684
2020-08-08 09:19:01+00:00,205.5447,17.98,12.65,47.84626,-54.09684
2020-08-08 09:29:01+00:00,210.4964,18.0,12.65,47.84626,-54.09684
2020-08-08 09:39:01+00:00,218.6097,18.0,12.65,47.84626,-54.09684
2020-08-08 09:49:01+00:00,221.9298,18.0,12.65,47.84626,-54.09684
2020-08-08 09:59:01+00:00,223.8648,17.93,12.65,47.84626,-54.09684
2020-08-08 10:09:01+00:00,229.5614,17.9,12.65,47.84626,-54.09684
2020-08-08 10:19:01+00:00,233.7564,17.9,12.73,47.84626,-54.09684
2020-08-08 10:29:01+00:00,233.4348,17.9,12.73,47.84626,-54.09684
2020-08-08 10:39:01+00:00,236.4147,17.88,12.73,47.84626,-54.09684
2020-08-08 10:49:01+00:00,242.0165,17.6,12.73,47.84626,-54.09684
2020-08-08 10:59:01+00:00,245.9897,17.5,12.73,47.84626,-54.09684
2020-08-08 11:09:01+00:00,245.8814,17.4,12.73,47.84626,-54.09684
2020-08-08 11:19:01+00:00,249.2298,17.3,13.44,47.84626,-54.09684
2020-08-08 11:29:01+00:00,256.2581,17.0,13.44,47.84626,-54.09684
2020-08-08 11:39:01+00:00,259.8581,16.92,13.44,47.84626,-54.09684
2020-08-08 11:49:01+00:00,262.6381,17.09,13.44,47.84626,-54.09684
2020-08-08 11:59:01+00:00,269.1664,17.18,13.44,47.84626,-54.09684
2020-08-08 12:09:01+00:00,276.0831,17.17,13.44,47.84626,-54.09684
2020-08-08 12:19:01+00:00,278.2964,17.4,14.32,47.84626,-54.09684
2020-08-08 12:29:01+00:00,280.5614,17.4,14.32,47.84626,-54.09684
2020-08-08 12:39:01+00:00,286.3664,17.4,14.32,47.84626,-54.09684
2020-08-08 12:49:01+00:00,292.3614,17.57,14.32,47.84626,-54.09684
2020-08-08 12:59:01+00:00,296.603,17.6,14.32,47.84626,-54.09684
2020-08-08 13:09:01+00:00,301.6063,17.39,14.32,47.84626,-54.09684
2020-08-08 13:19:01+00:00,309.358,17.37,14.4,47.84626,-54.09684
2020-08-08 13:29:01+00:00,316.013,17.3,14.4,47.84626,-54.09684
2020-08-08 13:39:01+00:00,316.773,17.2,14.4,47.84626,-54.09684
2020-08-08 13:49:01+00:00,320.208,17.0,14.4,47.84626,-54.09684
2020-08-08 13:59:01+00:00,326.9413,16.9,14.4,47.84626,-54.09684
2020-08-08 14:09:01+00:00,328.0114,17.09,14.4,47.84626,-54.09684
2020-08-08 14:19:01+00:00,325.3564,17.2,14.32,47.84626,-54.09684
2020-08-08 14:29:01+00:00,326.8579,17.18,14.32,47.84626,-54.09684
2020-08-08 14:39:01+00:00,328.4363,17.24,14.32,47.84626,-54.09684
2020-08-08 14:49:01+00:00,325.6613,17.69,14.32,47.84626,-54.09684
2020-08-08 14:59:01+00:00,323.933,17.84,14.32,47.84626,-54.09684
2020-08-08 15:09:01+00:00,325.1528,17.9,14.32,47.84626,-54.09684
2020-08-08 15:19:01+00:00,323.6096,18.03,14.24,47.84626,-54.09684
2020-08-08 15:29:01+00:00,322.3946,18.0,14.24,47.84626,-54.09684
2020-08-08 15:39:01+00:00,322.0414,17.7,14.24,47.84626,-54.09684
2020-08-08 15:49:01+00:00,322.2263,17.81,14.24,47.84626,-54.09684
2020-08-08 15:59:01+00:00,319.9813,18.1,14.24,47.84626,-54.09684
2020-08-08 16:09:01+00:00,316.6096,18.0,14.24,47.84626,-54.09684
2020-08-08 16:19:01+00:00,314.9847,17.7,14.16,47.84626,-54.09684
2020-08-08 16:29:01+00:00,309.5864,17.81,14.16,47.84626,-54.09684
2020-08-08 16:39:01+00:00,300.8214,18.0,14.16,47.84626,-54.09684
2020-08-08 16:49:01+00:00,298.5463,17.9,14.16,47.84626,-54.09684
2020-08-08 16:59:01+00:00,298.5114,17.96,14.16,47.84626,-54.09684
2020-08-08 17:09:01+00:00,291.563,18.0,14.16,47.84626,-54.09684
2020-08-08 17:19:01+00:00,285.3597,18.0,14.0,47.84626,-54.09684
2020-08-08 17:29:01+00:00,284.4398,18.0,14.0,47.84626,-54.09684
2020-08-08 17:39:01+00:00,280.4714,17.9,14.0,47.84626,-54.09684
2020-08-08 17:49:01+00:00,273.3181,17.9,14.0,47.84626,-54.09684
2020-08-08 17:59:01+00:00,268.7531,17.9,14.0,47.84626,-54.09684
2020-08-08 18:09:01+00:00,264.4397,17.9,14.0,47.84626,-54.09684
2020-08-08 18:19:01+00:00,257.4114,17.9,13.92,47.84626,-54.09684
2020-08-08 18:29:01+00:00,247.5597,17.99,13.92,47.84626,-54.09684
2020-08-08 18:39:01+00:00,239.6531,17.99,13.92,47.84626,-54.09684
2020-08-08 18:49:01+00:00,232.7214,17.95,13.92,47.84626,-54.09684
2020-08-08 18:59:01+00:00,221.6698,18.01,13.92,47.84626,-54.09684
2020-08-08 19:09:01+00:00,213.8464,18.1,13.92,47.84626,-54.09684
2020-08-08 19:19:01+00:00,211.9481,18.11,13.76,47.84626,-54.09684
2020-08-08 19:29:01+00:00,206.1014,18.1,13.76,47.84626,-54.09684
2020-08-08 19:39:01+00:00,198.6631,18.19,13.76,47.84626,-54.09684
2020-08-08 19:49:01+00:00,196.2548,18.28,13.76,47.84626,-54.09684
2020-08-08 19:59:01+00:00,192.2448,18.37,13.76,47.84626,-54.09684
2020-08-08 20:09:01+00:00,187.8531,18.39,13.76,47.84626,-54.09684
2020-08-08 20:19:01+00:00,187.3765,18.3,13.68,47.84626,-54.09684
2020-08-08 20:29:01+00:00,186.7298,18.3,13.68,47.84626,-54.09684
2020-08-08 20:39:01+00:00,182.5548,18.3,13.68,47.84626,-54.09684
2020-08-08 20:49:01+00:00,183.4882,18.2,13.68,47.84626,-54.09684
2020-08-08 20:59:01+00:00,188.7031,18.15,13.68,47.84626,-54.09684
2020-08-08 21:09:01+00:00,190.6648,18.2,13.68,47.84626,-54.09684
2020-08-08 21:19:01+00:00,189.9998,18.3,13.6,47.84626,-54.09684
2020-08-08 21:29:01+00:00,192.1915,18.39,13.6,47.84626,-54.09684
2020-08-08 21:39:01+00:00,199.3081,18.57,13.6,47.84626,-54.09684
2020-08-08 21:49:01+00:00,205.3398,18.75,13.6,47.84626,-54.09684
2020-08-08 21:59:01+00:00,206.4564,18.81,13.6,47.84626,-54.09684
2020-08-08 22:09:01+00:00,211.8098,18.89,13.6,47.84626,-54.09684
2020-08-08 22:19:01+00:00,217.9148,18.9,13.37,47.84626,-54.09684
2020-08-08 22:29:01+00:00,220.9847,18.98,13.37,47.84626,-54.09684
2020-08-08 22:39:01+00:00,222.9497,19.0,13.37,47.84626,-54.09684
2020-08-08 22:49:01+00:00,228.1331,18.9,13.37,47.84626,-54.09684
2020-08-08 22:59:01+00:00,234.5314,18.9,13.37,47.84626,-54.09684
2020-08-08 23:09:01+00:00,237.6131,18.8,13.37,47.84626,-54.09684
2020-08-08 23:19:01+00:00,238.3331,18.76,13.05,47.84626,-54.09684
2020-08-08 23:29:01+00:00,242.1764,18.75,13.05,47.84626,-54.09684
2020-08-08 23:39:01+00:00,247.5631,18.76,13.05,47.84626,-54.09684
2020-08-08 23:49:01+00:00,252.5197,18.77,13.05,47.84626,-54.09684
2020-08-08 23:59:01+00:00,254.3881,18.77,13.05,47.84626,-54.09684
